User: anonymous   Login
Location: Unspecified
(0.0000°N, 0.0000°E)
Time: 05:35:04
(UTC+01:00)
Language:

SJ-6B - Orbit

View from above orbital plane
View from above orbital plane
View from above satellite
View from above satellite

Ground track
Ground track

The orbit data is extracted from the following two-line orbital elements,

1 28415U 04035C   14326.10937062  .00006042  00000-0  43709-3 0  3493
2 28415 097.7978 331.7706 0056909 058.4765 302.2001 15.03088007557467
Epoch (UTC): 22 November 2014 02:37:29
Eccentricity: 0.0056909
inclination: 97.7978°
perigee height: 518 km
apogee height: 597 km
right ascension of ascending node: 331.7706°
argument of perigee: 58.4765°
revolutions per day: 15.03088007
mean anomaly at epoch: 302.2001°
orbit number at epoch: 55746

The dashed part of the orbit path shows where the satellite is in the earth's shadow,  

DLR